Location: ??????????
(54.8537°N, 38.8755°E)
Time: 01:43:29
(UTC+00:00)

Tiros 1 - Pass Details

Date: 13 September 2024
Orbit: 623 x 654 km, 48.4° (Epoch: 15 October)

Event Time Altitude Azimuth Distance (km) Brightness Sun altitude
Rises 19:12:59 0° 271° (W) 2,922 11.0 -26.1°
Reaches altitude 10° 19:16:02 10° 251° (WSW) 2,018 9.8 -26.4°
Enters shadow 19:17:00 13° 240° (WSW) 1,813 9.5 -26.5°
Maximum altitude 19:18:54 16° 212° (SSW) 1,639 - -26.6°
Drops below altitude 10° 19:21:47 10° 174° (S) 2,026 - -26.8°
Sets 19:24:52 0° 153° (SSE) 2,939 - -27.1°
